| time (UTC) | temp F | wind direction | speed MPH | gust MPH | rain 1hr in | rain 24hr in | rain mn in | humidity % | barometer mb |
| 20260510004525 | 61 | 299 | 1.0 | 9.0 | 0.00 | 0.00 | 0.00 | 75 | 996.9 |
| 20260510003029 | 61 | 38 | 2.0 | 7.0 | 0.00 | 0.00 | 0.00 | 74 | 996.9 |
| 20260510001516 | 61 | 183 | 1.0 | 10.0 | 0.00 | 0.00 | 0.00 | 75 | 996.8 |
| 20260510000023 | 61 | 135 | 1.0 | 5.0 | 0.00 | 0.00 | 0.00 | 75 | 997.0 |
| 20260509234524 | 61 | 262 | 2.0 | 7.0 | 0.00 | 0.00 | 0.00 | 75 | 996.8 |
| 20260509233026 | 61 | 356 | 3.0 | 10.0 | 0.00 | 0.00 | 0.00 | 76 | 996.7 |
| 20260509231528 | 61 | 256 | 2.0 | 6.0 | 0.00 | 0.00 | 0.00 | 76 | 996.9 |
| 20260509230019 | 61 | 97 | 3.0 | 11.0 | 0.00 | 0.00 | 0.00 | 76 | 997.0 |
| 20260509224524 | 61 | 198 | 1.0 | 5.0 | 0.00 | 0.00 | 0.00 | 76 | 997.0 |
| 20260509223010 | 60 | 218 | 2.0 | 9.0 | 0.00 | 0.00 | 0.00 | 76 | 997.2 |
| 20260509221514 | 60 | 49 | 1.0 | 10.0 | 0.00 | 0.00 | 0.00 | 75 | 997.1 |
| 20260509220017 | 60 | 57 | 2.0 | 6.0 | 0.00 | 0.00 | 0.00 | 74 | 997.0 |
| 20260509214522 | 60 | 309 | 1.0 | 6.0 | 0.00 | 0.00 | 0.00 | 76 | 996.8 |
| 20260509213004 | 59 | 136 | 1.0 | 7.0 | 0.00 | 0.00 | 0.00 | 78 | 997.1 |
| 20260509211515 | 59 | 227 | 1.0 | 7.0 | 0.00 | 0.00 | 0.00 | 78 | 996.9 |
| 20260509210016 | 58 | 202 | 3.0 | 10.0 | 0.00 | 0.00 | 0.00 | 79 | 996.9 |
| 20260509204521 | 57 | 205 | 2.0 | 9.0 | 0.00 | 0.00 | 0.00 | 81 | 996.9 |
| 20260509203024 | 55 | 115 | 1.0 | 4.0 | 0.00 | 0.00 | 0.00 | 84 | 997.0 |
| 20260509201506 | 55 | 224 | 0.0 | 5.0 | 0.00 | 0.00 | 0.00 | 85 | 996.9 |
| 20260509200012 | 55 | 210 | 1.0 | 7.0 | 0.00 | 0.00 | 0.00 | 84 | 996.6 |
| 20260509194522 | 55 | 86 | 3.0 | 9.0 | 0.00 | 0.00 | 0.00 | 83 | 996.8 |
| 20260509193024 | 55 | 86 | 2.0 | 14.0 | 0.00 | 0.00 | 0.00 | 83 | 996.2 |
| 20260509191527 | 55 | 58 | 1.0 | 7.0 | 0.00 | 0.00 | 0.00 | 83 | 996.3 |
| 20260509190012 | 54 | 278 | 2.0 | 8.0 | 0.00 | 0.00 | 0.00 | 83 | 996.4 |
| 20260509184517 | 54 | 51 | 2.0 | 8.0 | 0.00 | 0.00 | 0.00 | 83 | 996.1 |
| 20260509183022 | 54 | 315 | 2.0 | 6.0 | 0.00 | 0.00 | 0.00 | 84 | 996.1 |
| 20260509181521 | 54 | 288 | 1.0 | 7.0 | 0.00 | 0.00 | 0.00 | 84 | 996.2 |
| 20260509180027 | 54 | 293 | 2.0 | 9.0 | 0.00 | 0.00 | 0.00 | 85 | 996.1 |
| 20260509174510 | 54 | 75 | 1.0 | 9.0 | 0.00 | 0.00 | 0.00 | 84 | 996.0 |
| 20260509173049 | 54 | 217 | 1.0 | 11.0 | 0.00 | 0.00 | 0.00 | 83 | 996.0 |
| 20260509171527 | 54 | 262 | 1.0 | 8.0 | 0.00 | 0.00 | 0.00 | 83 | 996.1 |
| 20260509170024 | 54 | 6 | 1.0 | 6.0 | 0.00 | 0.00 | 0.00 | 82 | 996.1 |
| 20260509164527 | 54 | 262 | 1.0 | 6.0 | 0.00 | 0.00 | 0.00 | 83 | 996.0 |
| 20260509163022 | 54 | 65 | 1.0 | 8.0 | 0.00 | 0.00 | 0.00 | 82 | 996.0 |
| 20260509161520 | 54 | 124 | 1.0 | 9.0 | 0.00 | 0.00 | 0.00 | 82 | 995.8 |
| 20260509160023 | 54 | 259 | 1.0 | 4.0 | 0.00 | 0.00 | 0.00 | 82 | 995.8 |
| 20260509154505 | 54 | 274 | 1.0 | 5.0 | 0.00 | 0.00 | 0.00 | 82 | 995.8 |
| 20260509153022 | 54 | 211 | 2.0 | 5.0 | 0.00 | 0.00 | 0.00 | 82 | 996.0 |
| 20260509151516 | 54 | 37 | 2.0 | 7.0 | 0.00 | 0.00 | 0.00 | 82 | 996.1 |
| 20260509150022 | 54 | 354 | 1.0 | 5.0 | 0.00 | 0.00 | 0.00 | 83 | 996.1 |
| 20260509144526 | 54 | 103 | 2.0 | 11.0 | 0.00 | 0.00 | 0.00 | 82 | 996.5 |
| 20260509143012 | 54 | 102 | 1.0 | 6.0 | 0.00 | 0.00 | 0.00 | 83 | 996.5 |
| 20260509141511 | 54 | 293 | 1.0 | 4.0 | 0.00 | 0.00 | 0.00 | 83 | 996.8 |
| 20260509140018 | 54 | 252 | 1.0 | 5.0 | 0.00 | 0.00 | 0.00 | 84 | 996.8 |
| 20260509134522 | 54 | 179 | 2.0 | 6.0 | 0.00 | 0.00 | 0.00 | 87 | 996.6 |
| 20260509133026 | 54 | 305 | 2.0 | 7.0 | 0.00 | 0.00 | 0.00 | 87 | 996.7 |
| 20260509131510 | 55 | 247 | 2.0 | 11.0 | 0.00 | 0.00 | 0.00 | 86 | 996.7 |
| 20260509130042 | 55 | 285 | 1.0 | 9.0 | 0.00 | 0.00 | 0.00 | 87 | 996.7 |
| 20260509124529 | 55 | 41 | 3.0 | 10.0 | 0.00 | 0.00 | 0.00 | 88 | 996.7 |
| 20260509123030 | 54 | 215 | 2.0 | 7.0 | 0.00 | 0.00 | 0.00 | 87 | 996.5 |
| 20260509121526 | 55 | 263 | 2.0 | 8.0 | 0.00 | 0.00 | 0.00 | 86 | 996.4 |
| 20260509120015 | 55 | 251 | 3.0 | 13.0 | 0.00 | 0.00 | 0.00 | 86 | 996.9 |
| 20260509114519 | 55 | 264 | 2.0 | 8.0 | 0.00 | 0.00 | 0.00 | 85 | 997.1 |
| 20260509113021 | 56 | 168 | 2.0 | 10.0 | 0.00 | 0.00 | 0.00 | 84 | 997.2 |
| 20260509111524 | 56 | 339 | 1.0 | 8.0 | 0.00 | 0.00 | 0.00 | 82 | 996.9 |
| 20260509110028 | 56 | 314 | 3.0 | 10.0 | 0.00 | 0.00 | 0.00 | 83 | 996.9 |
| 20260509104514 | 56 | 228 | 2.0 | 11.0 | 0.00 | 0.00 | 0.00 | 81 | 997.1 |
| 20260509103018 | 56 | 336 | 3.0 | 11.0 | 0.00 | 0.00 | 0.00 | 79 | 997.2 |
| 20260509101533 | 56 | 86 | 3.0 | 13.0 | 0.00 | 0.00 | 0.00 | 78 | 997.4 |
| 20260509100026 | 56 | 340 | 2.0 | 12.0 | 0.00 | 0.00 | 0.00 | 80 | 997.3 |
| 20260509094531 | 56 | 158 | 2.0 | 13.0 | 0.00 | 0.00 | 0.00 | 78 | 997.3 |
| 20260509093016 | 56 | 338 | 2.0 | 11.0 | 0.00 | 0.00 | 0.00 | 82 | 997.2 |
| 20260509091520 | 56 | 263 | 3.0 | 10.0 | 0.00 | 0.02 | 0.00 | 83 | 997.3 |
| 20260509090024 | 56 | 94 | 3.0 | 9.0 | 0.00 | 0.09 | 0.00 | 81 | 997.0 |
| 20260509084506 | 56 | 262 | 3.0 | 10.0 | 0.00 | 0.37 | 0.00 | 84 | 996.7 |
| 20260509083012 | 56 | 210 | 3.0 | 16.0 | 0.00 | 0.57 | 0.00 | 84 | 996.5 |
| 20260509081518 | 56 | 87 | 4.0 | 19.0 | 0.00 | 0.68 | 0.00 | 83 | 996.8 |
| 20260509080021 | 56 | 326 | 2.0 | 12.0 | 0.00 | 0.74 | 0.00 | 84 | 996.9 |
| 20260509074526 | 56 | 112 | 2.0 | 12.0 | 0.00 | 0.74 | 0.00 | 84 | 997.0 |
| 20260509073010 | 57 | 82 | 2.0 | 8.0 | 0.00 | 0.77 | 0.00 | 84 | 996.8 |
| 20260509071515 | 57 | 345 | 3.0 | 11.0 | 0.00 | 0.77 | 0.00 | 84 | 996.8 |
| 20260509070022 | 57 | 220 | 2.0 | 10.0 | 0.00 | 0.81 | 0.00 | 84 | 996.9 |
| 20260509064523 | 57 | 44 | 2.0 | 8.0 | 0.00 | 0.90 | 0.00 | 86 | 996.9 |
| 20260509063034 | 57 | 158 | 2.0 | 13.0 | 0.00 | 0.97 | 0.00 | 87 | 996.9 |
| 20260509061514 | 57 | 91 | 3.0 | 10.0 | 0.00 | 0.99 | 0.00 | 88 | 996.7 |
| 20260509060016 | 56 | 214 | 2.0 | 8.0 | 0.00 | 1.00 | 0.00 | 89 | 996.6 |
| 20260509054523 | 56 | 230 | 1.0 | 6.0 | 0.00 | 1.03 | 0.00 | 88 | 996.7 |
| 20260509053024 | 57 | 114 | 1.0 | 4.0 | 0.00 | 1.05 | 0.00 | 88 | 997.0 |
| 20260509051528 | 57 | 233 | 1.0 | 9.0 | 0.00 | 1.05 | 0.00 | 88 | 996.9 |
| 20260509050022 | 57 | 79 | 0.0 | 8.0 | 0.00 | 1.05 | 0.00 | 88 | 996.7 |
| 20260509044520 | 58 | 250 | 1.0 | 7.0 | 0.00 | 1.05 | 0.00 | 87 | 996.8 |
| 20260509043025 | 58 | 236 | 2.0 | 11.0 | 0.00 | 1.05 | 0.00 | 87 | 996.8 |
| 20260509041524 | 58 | 93 | 2.0 | 11.0 | 0.00 | 1.05 | 0.00 | 86 | 997.0 |
| 20260509040035 | 59 | 36 | 2.0 | 8.0 | 0.00 | 1.05 | 0.00 | 86 | 997.0 |
| 20260509034512 | 59 | 47 | 2.0 | 7.0 | 0.00 | 1.05 | 0.00 | 87 | 996.8 |
| 20260509033018 | 59 | 316 | 3.0 | 9.0 | 0.00 | 1.06 | 0.00 | 87 | 996.7 |
| 20260509031529 | 60 | 1 | 1.0 | 7.0 | 0.00 | 1.06 | 0.00 | 87 | 996.5 |
| 20260509030026 | 60 | 124 | 1.0 | 5.0 | 0.00 | 1.06 | 0.00 | 87 | 996.6 |
| 20260509024528 | 60 | 240 | 1.0 | 15.0 | 0.00 | 1.06 | 0.00 | 87 | 996.7 |
| 20260509023016 | 60 | 233 | 1.0 | 11.0 | 0.00 | 1.06 | 0.00 | 88 | 996.8 |
| 20260509021522 | 60 | 352 | 3.0 | 8.0 | 0.00 | 1.06 | 0.00 | 88 | 996.6 |
| 20260509020023 | 60 | 77 | 2.0 | 10.0 | 0.00 | 1.06 | 0.00 | 87 | 996.8 |
| 20260509014537 | 60 | 288 | 1.0 | 13.0 | 0.00 | 1.06 | 0.00 | 87 | 996.9 |
| 20260509013028 | 60 | 6 | 1.0 | 13.0 | 0.00 | 1.06 | 0.00 | 87 | 996.9 |
| 20260509011520 | 60 | 18 | 2.0 | 15.0 | 0.00 | 1.06 | 0.00 | 87 | 996.5 |
| 20260509010027 | 60 | 253 | 4.0 | 14.0 | 0.00 | 1.06 | 0.00 | 87 | 996.7 |